Time,TemperatureF,DewpointF,PressureIn,WindDirection,WindDirectionDegrees,WindSpeedMPH,WindSpeedGustMPH,Humidity,HourlyPrecipIn,Conditions,Clouds,dailyrainin,SoftwareType,DateUTC
2013-03-01 00:02:00,32.0,29.0,29.98,WNW,295,3.0,6.0,87,0.00,,,0.03,,2013-03-01 05:02:00,
2013-03-01 00:11:00,32.0,29.0,29.98,WNW,295,3.0,6.0,87,0.00,,,0.03,,2013-03-01 05:11:00,
2013-03-01 00:22:00,32.0,29.0,29.98,NW,315,2.0,5.0,87,0.00,,,0.03,,2013-03-01 05:22:00,
2013-03-01 00:32:00,32.0,29.0,29.98,WSW,253,1.0,5.0,87,0.00,,,0.03,,2013-03-01 05:32:00,
2013-03-01 00:42:00,32.0,29.0,29.98,WSW,253,1.0,5.0,87,0.00,,,0.03,,2013-03-01 05:42:00,
2013-03-01 00:53:00,32.0,29.0,29.98,West,280,2.0,5.0,87,0.00,,,0.03,,2013-03-01 05:53:00,
2013-03-01 01:02:00,31.0,28.0,29.98,West,269,3.0,6.0,87,0.00,,,0.03,,2013-03-01 06:02:00,
2013-03-01 01:11:00,31.0,28.0,29.98,West,269,3.0,6.0,87,0.00,,,0.03,,2013-03-01 06:11:00,
2013-03-01 01:22:00,31.0,27.0,29.98,NW,323,2.0,8.0,86,0.00,,,0.03,,2013-03-01 06:22:00,
2013-03-01 01:32:00,31.0,27.0,29.98,NW,323,2.0,8.0,86,0.00,,,0.03,,2013-03-01 06:32:00,
2013-03-01 01:42:00,31.0,27.0,29.98,NW,323,2.0,8.0,86,0.00,,,0.03,,2013-03-01 06:42:00,
2013-03-01 01:52:00,31.0,27.0,29.98,WNW,287,4.0,9.0,86,0.00,,,0.03,,2013-03-01 06:52:00,
2013-03-01 02:01:00,31.0,27.0,29.98,WNW,292,2.0,7.0,86,0.00,,,0.03,,2013-03-01 07:01:00,
2013-03-01 02:11:00,31.0,27.0,29.98,WNW,292,2.0,7.0,86,0.00,,,0.03,,2013-03-01 07:11:00,
2013-03-01 02:22:00,31.0,28.0,29.98,WNW,292,2.0,6.0,87,0.00,,,0.03,,2013-03-01 07:22:00,
2013-03-01 02:32:00,31.0,28.0,29.97,WNW,290,3.0,9.0,87,0.00,,,0.03,,2013-03-01 07:32:00,
2013-03-01 02:42:00,31.0,28.0,29.97,WNW,290,3.0,9.0,87,0.00,,,0.03,,2013-03-01 07:42:00,
2013-03-01 02:51:00,31.0,28.0,29.97,NW,325,3.0,9.0,87,0.00,,,0.03,,2013-03-01 07:51:00,
2013-03-01 03:02:00,31.0,28.0,29.97,WNW,286,1.0,6.0,87,0.00,,,0.03,,2013-03-01 08:02:00,
2013-03-01 03:11:00,31.0,28.0,29.97,WNW,286,1.0,6.0,87,0.00,,,0.03,,2013-03-01 08:11:00,
2013-03-01 03:22:00,31.0,28.0,29.97,NW,305,1.0,8.0,87,0.00,,,0.03,,2013-03-01 08:22:00,
2013-03-01 03:32:00,31.0,28.0,29.97,NW,305,1.0,8.0,87,0.00,,,0.03,,2013-03-01 08:32:00,
2013-03-01 03:42:00,31.0,28.0,29.97,NW,305,1.0,8.0,87,0.00,,,0.03,,2013-03-01 08:42:00,
2013-03-01 03:52:00,31.0,28.0,29.96,WNW,291,3.0,8.0,87,0.00,,,0.03,,2013-03-01 08:52:00,
2013-03-01 04:02:00,31.0,28.0,29.96,NW,325,1.0,7.0,87,0.00,,,0.03,,2013-03-01 09:02:00,
2013-03-01 04:12:00,31.0,28.0,29.96,NW,325,1.0,7.0,87,0.00,,,0.03,,2013-03-01 09:12:00,
2013-03-01 04:22:00,31.0,28.0,29.96,NNW,335,0.0,4.0,87,0.00,,,0.03,,2013-03-01 09:22:00,
2013-03-01 04:32:00,31.0,28.0,29.96,West,277,3.0,7.0,87,0.00,,,0.03,,2013-03-01 09:32:00,
2013-03-01 04:42:00,31.0,28.0,29.96,West,277,3.0,7.0,87,0.00,,,0.03,,2013-03-01 09:42:00,
2013-03-01 04:52:00,31.0,28.0,29.96,NNW,329,1.0,5.0,87,0.00,,,0.03,,2013-03-01 09:52:00,
2013-03-01 05:02:00,31.0,28.0,29.96,NW,304,3.0,6.0,88,0.00,,,0.03,,2013-03-01 10:02:00,
2013-03-01 05:11:00,31.0,28.0,29.96,NW,304,3.0,6.0,88,0.00,,,0.03,,2013-03-01 10:11:00,
2013-03-01 05:22:00,30.0,27.0,29.97,NW,306,4.0,6.0,88,0.00,,,0.03,,2013-03-01 10:22:00,
2013-03-01 05:32:00,30.0,27.0,29.97,NNW,338,3.0,7.0,89,0.00,,,0.03,,2013-03-01 10:32:00,
2013-03-01 05:42:00,30.0,27.0,29.97,NNW,338,3.0,7.0,89,0.00,,,0.03,,2013-03-01 10:42:00,
2013-03-01 05:52:00,30.0,27.0,29.97,NW,321,3.0,8.0,89,0.00,,,0.03,,2013-03-01 10:52:00,
2013-03-01 06:01:00,30.0,27.0,29.98,NW,314,2.0,7.0,90,0.00,,,0.03,,2013-03-01 11:01:00,
2013-03-01 06:11:00,30.0,27.0,29.98,NW,314,2.0,7.0,90,0.00,,,0.03,,2013-03-01 11:11:00,
2013-03-01 06:22:00,30.0,28.0,29.98,NW,325,1.0,6.0,91,0.00,,,0.03,,2013-03-01 11:22:00,
2013-03-01 06:32:00,30.0,28.0,29.98,WNW,294,2.0,7.0,91,0.00,,,0.03,,2013-03-01 11:32:00,
2013-03-01 06:42:00,30.0,28.0,29.98,WNW,294,2.0,7.0,91,0.00,,,0.03,,2013-03-01 11:42:00,
2013-03-01 06:52:00,30.0,28.0,29.98,WNW,298,1.0,5.0,91,0.00,,,0.03,,2013-03-01 11:52:00,
2013-03-01 07:01:00,30.0,28.0,29.98,West,281,0.0,7.0,92,0.00,,,0.03,,2013-03-01 12:01:00,
2013-03-01 07:11:00,30.0,28.0,29.98,West,281,0.0,7.0,92,0.00,,,0.03,,2013-03-01 12:11:00,
2013-03-01 07:21:00,30.0,28.0,29.98,NW,309,1.0,4.0,92,0.00,,,0.03,,2013-03-01 12:21:00,
2013-03-01 07:32:00,30.0,28.0,29.98,NNW,344,2.0,5.0,92,0.00,,,0.03,,2013-03-01 12:32:00,
2013-03-01 07:42:00,30.0,28.0,29.98,NNW,344,2.0,5.0,92,0.00,,,0.03,,2013-03-01 12:42:00,
2013-03-01 07:52:00,30.0,28.0,29.98,NNW,337,1.0,5.0,91,0.00,,,0.03,,2013-03-01 12:52:00,
2013-03-01 08:01:00,30.0,28.0,29.99,West,267,1.0,4.0,92,0.00,,,0.03,,2013-03-01 13:01:00,
2013-03-01 08:11:00,30.0,28.0,29.99,West,267,1.0,4.0,92,0.00,,,0.03,,2013-03-01 13:11:00,
2013-03-01 08:21:00,30.0,28.0,30.00,NNW,342,1.0,4.0,92,0.00,,,0.03,,2013-03-01 13:21:00,
2013-03-01 08:32:00,30.0,28.0,30.01,NW,321,1.0,5.0,92,0.00,,,0.03,,2013-03-01 13:32:00,
2013-03-01 08:42:00,30.0,28.0,30.01,NW,321,1.0,5.0,92,0.00,,,0.03,,2013-03-01 13:42:00,
2013-03-01 08:52:00,30.0,28.0,30.01,NW,310,1.0,4.0,92,0.00,,,0.03,,2013-03-01 13:52:00,
2013-03-01 09:01:00,30.0,28.0,30.01,NNW,327,1.0,5.0,92,0.00,,,0.03,,2013-03-01 14:01:00,
2013-03-01 09:11:00,30.0,28.0,30.01,NNW,327,1.0,5.0,92,0.00,,,0.03,,2013-03-01 14:11:00,
2013-03-01 09:21:00,30.0,28.0,30.01,NW,319,1.0,5.0,92,0.00,,,0.03,,2013-03-01 14:21:00,
2013-03-01 09:32:00,30.0,28.0,30.01,NNW,332,2.0,5.0,92,0.00,,,0.03,,2013-03-01 14:32:00,
2013-03-01 09:42:00,30.0,28.0,30.01,NNW,332,2.0,5.0,92,0.00,,,0.03,,2013-03-01 14:42:00,
2013-03-01 09:52:00,30.0,28.0,30.01,WNW,282,2.0,5.0,92,0.00,,,0.03,,2013-03-01 14:52:00,
2013-03-01 10:01:00,30.0,28.0,30.01,WNW,296,3.0,5.0,91,0.00,,,0.03,,2013-03-01 15:01:00,
2013-03-01 10:11:00,30.0,28.0,30.01,NW,311,1.0,6.0,91,0.00,,,0.03,,2013-03-01 15:11:00,
2013-03-01 10:21:00,30.0,28.0,30.01,NW,311,1.0,6.0,91,0.00,,,0.03,,2013-03-01 15:21:00,
2013-03-01 10:32:00,31.0,28.0,30.01,NW,319,2.0,6.0,90,0.00,,,0.03,,2013-03-01 15:32:00,
2013-03-01 10:42:00,31.0,28.0,30.01,NW,319,2.0,6.0,90,0.00,,,0.03,,2013-03-01 15:42:00,
2013-03-01 10:52:00,31.0,29.0,30.01,NNW,344,1.0,5.0,91,0.00,,,0.03,,2013-03-01 15:52:00,
2013-03-01 11:01:00,31.0,28.0,30.01,West,273,2.0,5.0,90,0.00,,,0.03,,2013-03-01 16:01:00,
2013-03-01 11:11:00,31.0,28.0,30.01,West,273,2.0,5.0,90,0.00,,,0.03,,2013-03-01 16:11:00,
2013-03-01 11:21:00,31.0,29.0,30.02,NNW,342,1.0,4.0,91,0.00,,,0.03,,2013-03-01 16:21:00,
2013-03-01 11:32:00,32.0,30.0,30.02,NNW,329,1.0,3.0,91,0.00,,,0.02,,2013-03-01 16:32:00,
2013-03-01 11:42:00,32.0,30.0,30.02,NNW,329,1.0,3.0,91,0.00,,,0.02,,2013-03-01 16:42:00,
2013-03-01 11:51:00,32.0,30.0,30.03,North,11,1.0,5.0,91,0.00,,,0.02,,2013-03-01 16:51:00,
2013-03-01 12:01:00,32.0,30.0,30.03,ENE,69,2.0,6.0,91,0.00,,,0.02,,2013-03-01 17:01:00,
2013-03-01 12:11:00,32.0,30.0,30.03,ENE,69,2.0,6.0,91,0.00,,,0.02,,2013-03-01 17:11:00,
2013-03-01 12:21:00,32.0,29.0,30.03,NE,36,3.0,6.0,90,0.00,,,0.02,,2013-03-01 17:21:00,
2013-03-01 12:32:00,32.0,29.0,30.03,NE,38,4.0,11.0,89,0.00,,,0.01,,2013-03-01 17:32:00,
2013-03-01 12:41:00,32.0,29.0,30.03,NE,38,4.0,11.0,89,0.00,,,0.01,,2013-03-01 17:41:00,
2013-03-01 12:52:00,32.0,29.0,30.03,NE,47,3.0,6.0,89,0.01,,,0.02,,2013-03-01 17:52:00,
2013-03-01 13:01:00,32.0,29.0,30.03,NE,53,4.0,9.0,88,0.01,,,0.02,,2013-03-01 18:01:00,
2013-03-01 13:12:00,32.0,29.0,30.03,NE,53,4.0,9.0,88,0.01,,,0.02,,2013-03-01 18:12:00,
2013-03-01 13:22:00,33.0,29.0,30.03,ENE,62,3.0,9.0,85,0.01,,,0.02,,2013-03-01 18:22:00,
2013-03-01 13:32:00,33.0,29.0,30.03,NE,45,4.0,10.0,85,0.02,,,0.02,,2013-03-01 18:32:00,
2013-03-01 13:42:00,33.0,29.0,30.03,NE,45,4.0,10.0,85,0.02,,,0.02,,2013-03-01 18:42:00,
2013-03-01 13:52:00,32.0,28.0,30.03,ENE,72,3.0,8.0,86,0.01,,,0.02,,2013-03-01 18:52:00,
2013-03-01 14:01:00,32.0,29.0,30.03,NE,55,3.0,10.0,87,0.01,,,0.02,,2013-03-01 19:01:00,
2013-03-01 14:11:00,32.0,29.0,30.03,NE,55,3.0,10.0,87,0.01,,,0.02,,2013-03-01 19:11:00,
2013-03-01 14:21:00,32.0,29.0,30.02,ENE,63,3.0,7.0,87,0.01,,,0.02,,2013-03-01 19:21:00,
2013-03-01 14:32:00,32.0,29.0,30.02,NE,40,1.0,6.0,87,0.00,,,0.02,,2013-03-01 19:32:00,
2013-03-01 14:42:00,32.0,29.0,30.02,NE,40,1.0,6.0,87,0.00,,,0.02,,2013-03-01 19:42:00,
2013-03-01 14:51:00,32.0,29.0,30.02,NE,47,3.0,8.0,87,0.00,,,0.02,,2013-03-01 19:51:00,
2013-03-01 15:01:00,32.0,29.0,30.02,NE,47,3.0,8.0,87,0.00,,,0.02,,2013-03-01 20:01:00,
2013-03-01 15:11:00,32.0,29.0,30.02,NE,47,3.0,8.0,87,0.00,,,0.02,,2013-03-01 20:11:00,
2013-03-01 15:21:00,33.0,28.0,30.02,ENE,68,3.0,8.0,83,0.00,,,0.02,,2013-03-01 20:21:00,
2013-03-01 15:32:00,33.0,28.0,30.02,ENE,63,2.0,7.0,83,0.00,,,0.02,,2013-03-01 20:32:00,
2013-03-01 15:42:00,33.0,28.0,30.02,ENE,63,2.0,7.0,83,0.00,,,0.02,,2013-03-01 20:42:00,
2013-03-01 15:52:00,33.0,28.0,30.02,ENE,63,2.0,7.0,83,0.00,,,0.02,,2013-03-01 20:52:00,
2013-03-01 16:01:00,33.0,28.0,30.02,ENE,78,1.0,5.0,82,0.00,,,0.02,,2013-03-01 21:01:00,
2013-03-01 16:11:00,33.0,28.0,30.02,ENE,78,1.0,5.0,82,0.00,,,0.02,,2013-03-01 21:11:00,
2013-03-01 16:21:00,33.0,28.0,30.03,NNW,341,1.0,6.0,80,0.00,,,0.02,,2013-03-01 21:21:00,
2013-03-01 16:32:00,33.0,28.0,30.02,NE,39,2.0,6.0,80,0.00,,,0.02,,2013-03-01 21:32:00,
2013-03-01 16:42:00,33.0,28.0,30.02,NE,39,2.0,6.0,80,0.00,,,0.02,,2013-03-01 21:42:00,
2013-03-01 16:51:00,32.0,27.0,30.03,ENE,74,2.0,8.0,80,0.00,,,0.02,,2013-03-01 21:51:00,
2013-03-01 17:01:00,32.0,26.0,30.03,NE,34,2.0,8.0,79,0.00,,,0.02,,2013-03-01 22:01:00,
2013-03-01 17:11:00,32.0,26.0,30.03,NE,34,2.0,8.0,79,0.00,,,0.02,,2013-03-01 22:11:00,
2013-03-01 17:21:00,32.0,27.0,30.03,NE,40,0.0,8.0,81,0.00,,,0.02,,2013-03-01 22:21:00,
2013-03-01 17:32:00,32.0,27.0,30.03,NE,40,1.0,6.0,80,0.00,,,0.02,,2013-03-01 22:32:00,
2013-03-01 17:42:00,32.0,27.0,30.03,NE,40,1.0,6.0,80,0.00,,,0.02,,2013-03-01 22:42:00,
2013-03-01 17:51:00,32.0,27.0,30.04,East,79,3.0,5.0,80,0.00,,,0.02,,2013-03-01 22:51:00,
2013-03-01 18:01:00,32.0,27.0,30.04,NE,37,3.0,7.0,80,0.00,,,0.02,,2013-03-01 23:01:00,
2013-03-01 18:11:00,32.0,27.0,30.04,NE,37,3.0,7.0,80,0.00,,,0.02,,2013-03-01 23:11:00,
2013-03-01 18:21:00,32.0,27.0,30.05,ENE,59,2.0,6.0,81,0.00,,,0.02,,2013-03-01 23:21:00,
2013-03-01 18:31:00,32.0,27.0,30.05,ENE,73,1.0,4.0,81,0.00,,,0.02,,2013-03-01 23:31:00,
2013-03-01 18:41:00,32.0,27.0,30.05,ENE,73,1.0,4.0,81,0.00,,,0.02,,2013-03-01 23:41:00,
2013-03-01 18:52:00,31.0,26.0,30.06,ENE,60,1.0,5.0,81,0.00,,,0.02,,2013-03-01 23:52:00,
2013-03-01 19:02:00,31.0,26.0,30.06,NE,47,0.0,3.0,82,0.00,,,0.02,,2013-03-02 00:02:00,
2013-03-01 19:11:00,31.0,26.0,30.06,NE,47,0.0,3.0,82,0.00,,,0.02,,2013-03-02 00:11:00,
2013-03-01 19:22:00,31.0,26.0,30.07,NNE,28,1.0,5.0,82,0.00,,,0.02,,2013-03-02 00:22:00,
2013-03-01 19:32:00,31.0,26.0,30.07,North,11,0.0,4.0,82,0.00,,,0.02,,2013-03-02 00:32:00,
2013-03-01 19:42:00,31.0,26.0,30.07,North,11,0.0,4.0,82,0.00,,,0.02,,2013-03-02 00:42:00,
2013-03-01 19:52:00,31.0,26.0,30.07,NNE,30,0.0,2.0,82,0.00,,,0.02,,2013-03-02 00:52:00,
2013-03-01 20:01:00,31.0,26.0,30.07,NNE,28,1.0,3.0,82,0.00,,,0.02,,2013-03-02 01:01:00,
2013-03-01 20:11:00,31.0,26.0,30.07,NNE,28,1.0,3.0,82,0.00,,,0.02,,2013-03-02 01:11:00,
2013-03-01 20:21:00,31.0,26.0,30.08,NE,42,0.0,1.0,83,0.00,,,0.02,,2013-03-02 01:21:00,
2013-03-01 20:31:00,31.0,26.0,30.08,NE,42,0.0,1.0,83,0.00,,,0.02,,2013-03-02 01:31:00,
2013-03-01 20:41:00,31.0,26.0,30.08,NE,42,0.0,1.0,83,0.00,,,0.02,,2013-03-02 01:41:00,
2013-03-01 20:51:00,31.0,26.0,30.08,ENE,65,2.0,4.0,80,0.00,,,0.02,,2013-03-02 01:51:00,
2013-03-01 21:01:00,31.0,26.0,30.08,ENE,63,1.0,7.0,80,0.00,,,0.02,,2013-03-02 02:01:00,
2013-03-01 21:11:00,31.0,26.0,30.08,ENE,63,1.0,7.0,80,0.00,,,0.02,,2013-03-02 02:11:00,
2013-03-01 21:22:00,31.0,26.0,30.09,NE,53,0.0,6.0,80,0.00,,,0.02,,2013-03-02 02:22:00,
2013-03-01 21:32:00,30.0,25.0,30.08,NE,49,1.0,4.0,80,0.00,,,0.02,,2013-03-02 02:32:00,
2013-03-01 21:42:00,30.0,25.0,30.08,NE,49,1.0,4.0,80,0.00,,,0.02,,2013-03-02 02:42:00,
2013-03-01 21:52:00,30.0,25.0,30.09,NE,52,0.0,4.0,80,0.00,,,0.02,,2013-03-02 02:52:00,
2013-03-01 22:01:00,30.0,25.0,30.09,NE,52,1.0,5.0,80,0.00,,,0.02,,2013-03-02 03:01:00,
2013-03-01 22:11:00,30.0,25.0,30.09,NE,52,1.0,5.0,80,0.00,,,0.02,,2013-03-02 03:11:00,
2013-03-01 22:21:00,30.0,25.0,30.09,NE,52,1.0,5.0,80,0.00,,,0.02,,2013-03-02 03:21:00,
2013-03-01 22:32:00,30.0,24.0,30.09,ENE,73,2.0,9.0,79,0.00,,,0.02,,2013-03-02 03:32:00,
2013-03-01 22:42:00,30.0,24.0,30.09,ENE,73,2.0,9.0,79,0.00,,,0.02,,2013-03-02 03:42:00,
2013-03-01 22:52:00,30.0,24.0,30.09,NE,46,0.0,4.0,79,0.00,,,0.02,,2013-03-02 03:52:00,
2013-03-01 23:01:00,29.0,24.0,30.09,East,80,1.0,5.0,80,0.00,,,0.02,,2013-03-02 04:01:00,
2013-03-01 23:11:00,29.0,24.0,30.09,East,80,1.0,5.0,80,0.00,,,0.02,,2013-03-02 04:11:00,
2013-03-01 23:21:00,29.0,23.0,30.09,NNE,19,1.0,6.0,79,0.00,,,0.02,,2013-03-02 04:21:00,
2013-03-01 23:32:00,29.0,23.0,30.09,ENE,65,3.0,5.0,79,0.00,,,0.02,,2013-03-02 04:32:00,
2013-03-01 23:42:00,29.0,23.0,30.09,ENE,65,3.0,5.0,79,0.00,,,0.02,,2013-03-02 04:42:00,
2013-03-01 23:52:00,29.0,24.0,30.09,NE,36,1.0,5.0,80,0.00,,,0.02,,2013-03-02 04:52:00,